QPF
0.00 0.00 0.00 0.00 0.00 0.00 0.00 0.00 0.00 0.00 0.00 0.00 0.00 0.00 0.00 0.00 0.00 0.00 0.00 0.00 0.00 0.00 0.00 0.00 0.00 0.00 0.00 0.00 0.00 0.00 0.00 0.00 0.00 0.00 0.00 0.00 0.00 0.00 0.00 0.01 0.01 0.01 0.01
0.00 0.00 0.00 0.00 0.00 0.00 0.00 0.00 0.00 0.00 0.00 0.00 0.00 0.00 0.00 0.00 0.00 0.00 0.00 0.00 0.00 0.00 0.00 0.00 0.00 0.00 0.00 0.00 0.00 0.00 0.00 0.00 0.00 0.00 0.00 0.00 0.00 0.00 0.00 0.00 0.00 0.00 0.01
0.00 0.00 0.00 0.00 0.00 0.00 0.00 0.00 0.00 0.00 0.00 0.00 0.00 0.00 0.00 0.00 0.00 0.00 0.00 0.00 0.00 0.00 0.00 0.00 0.00 0.00 0.00 0.00 0.00 0.00 0.00 0.00 0.00 0.00 0.00 0.00 0.00 0.00 0.00 0.00 0.00 0.00 0.00
0.00 0.00 0.00 0.00 0.00 0.00 0.00 0.00 0.00 0.00 0.00 0.00 0.00 0.00 0.00 0.00 0.00 0.00 0.00 0.00 0.00 0.00 0.00 0.00 0.00 0.00 0.00 0.00 0.00 0.00 0.00 0.00 0.00 0.00 0.00 0.00 0.00 0.00 0.00 0.00 0.00 0.01 0.01
0.00 0.00 0.00 0.00 0.00 0.00 0.00 0.00 0.00 0.00 0.00 0.00 0.00 0.00 0.00 0.00 0.00 0.00 0.00 0.00 0.00 0.00 0.00 0.00 0.00 0.00 0.00 0.00 0.00 0.00 0.00 0.00 0.00 0.00 0.00 0.00 0.00 0.00 0.00 0.00 0.00 0.00 0.01
0.00 0.00 0.00 0.00 0.00 0.00 0.00 0.00 0.00 0.00 0.00 0.00 0.00 0.00 0.00 0.00 0.00 0.00 0.00 0.00 0.00 0.00 0.00 0.00 0.00 0.00 0.00 0.00 0.00 0.00 0.00 0.00 0.00 0.00 0.00 0.00 0.00 0.00 0.00 0.00 0.00 0.00 0.01
0.00 0.00 0.00 0.00 0.00 0.00 0.00 0.00 0.00 0.00 0.00 0.00 0.00 0.00 0.00 0.00 0.00 0.00 0.00 0.00 0.00 0.00 0.00 0.00 0.00 0.00 0.00 0.00 0.00 0.00 0.00 0.00 0.00 0.00 0.00 0.00 0.00 0.00 0.00 0.00 0.00 0.00 0.00
0.00 0.00 0.00 0.00 0.00 0.00 0.00 0.00 0.00 0.00 0.00 0.00 0.00 0.00 0.00 0.00 0.00 0.00 0.00 0.00 0.00 0.00 0.00 0.00 0.00 0.00 0.00 0.00 0.00 0.00 0.00 0.00 0.00 0.00 0.00 0.00 0.00 0.00 0.00 0.00 0.00 0.00 0.00
0.00 0.00 0.00 0.00 0.00 0.00 0.00 0.00 0.00 0.00 0.00 0.00 0.00 0.00 0.00 0.00 0.00 0.00 0.00 0.00 0.00 0.00 0.00 0.00 0.00 0.00 0.00 0.00 0.00 0.00 0.00 0.00 0.00 0.00 0.00 0.00 0.00 0.00 0.00 0.00 0.01 0.02 0.02
0.00 0.00 0.00 0.00 0.00 0.00 0.00 0.00 0.00 0.00 0.00 0.00 0.00 0.00 0.00 0.00 0.00 0.00 0.00 0.00 0.00 0.00 0.00 0.00 0.00 0.00 0.00 0.00 0.00 0.00 0.00 0.00 0.00 0.00 0.00 0.00 0.00 0.00 0.00 0.00 0.01 0.04 0.07
0.00 0.00 0.00 0.00 0.00 0.00 0.00 0.00 0.00 0.00 0.00 0.00 0.00 0.00 0.00 0.00 0.00 0.00 0.00 0.00 0.00 0.00 0.00 0.00 0.00 0.00 0.00 0.00 0.00 0.00 0.00 0.00 0.00 0.00 0.00 0.00 0.00 0.00 0.00 0.00 0.00 0.02 0.05
0.00 0.00 0.00 0.00 0.00 0.00 0.00 0.00 0.00 0.00 0.00 0.00 0.00 0.00 0.00 0.00 0.00 0.00 0.00 0.00 0.00 0.00 0.00 0.00 0.00 0.00 0.00 0.00 0.00 0.00 0.00 0.00 0.00 0.00 0.00 0.00 0.00 0.00 0.00 0.00 0.00 0.00 0.00
0.00 0.00 0.00 0.00 0.00 0.00 0.00 0.00 0.00 0.00 0.00 0.00 0.00 0.00 0.00 0.00 0.00 0.00 0.00 0.00 0.00 0.00 0.00 0.00 0.00 0.00 0.00 0.00 0.00 0.00 0.00 0.00 0.00 0.00 0.00 0.00 0.00 0.00 0.00 0.00 0.00 0.00 0.00
0.00 0.00 0.00 0.00 0.00 0.00 0.00 0.00 0.00 0.00 0.00 0.00 0.00 0.00 0.00 0.00 0.00 0.00 0.00 0.00 0.00 0.00 0.00 0.00 0.00 0.00 0.00 0.00 0.00 0.00 0.00 0.00 0.00 0.00 0.00 0.00 0.00 0.00 0.00 0.00 0.00 0.00 0.00
0.00 0.00 0.00 0.00 0.00 0.00 0.00 0.00 0.00 0.00 0.00 0.00 0.00 0.00 0.00 0.00 0.00 0.00 0.00 0.00 0.00 0.00 0.00 0.00 0.00 0.00 0.00 0.00 0.00 0.00 0.00 0.00 0.00 0.00 0.00 0.00 0.00 0.00 0.00 0.00 0.00 0.00 0.00
0.00 0.00 0.00 0.00 0.00 0.00 0.00 0.00 0.00 0.00 0.00 0.00 0.00 0.00 0.00 0.00 0.00 0.00 0.00 0.00 0.00 0.00 0.00 0.00 0.00 0.00 0.00 0.00 0.00 0.00 0.00 0.00 0.00 0.00 0.00 0.00 0.00 0.00 0.00 0.00 0.00 0.00 0.00
0.00 0.00 0.00 0.00 0.00 0.00 0.00 0.00 0.00 0.00 0.00 0.00 0.00 0.00 0.00 0.00 0.00 0.00 0.00 0.00 0.00 0.00 0.00 0.00 0.00 0.00 0.00 0.00 0.00 0.00 0.00 0.00 0.00 0.00 0.00 0.00 0.00 0.00 0.00 0.00 0.00 0.00 0.00
0.00 0.00 0.00 0.00 0.00 0.00 0.00 0.00 0.00 0.00 0.00 0.00 0.00 0.00 0.00 0.00 0.00 0.00 0.00 0.00 0.00 0.00 0.00 0.00 0.00 0.00 0.00 0.00 0.00 0.00 0.00 0.00 0.00 0.00 0.00 0.00 0.00 0.00 0.00 0.00 0.00 0.00 0.00
0.00 0.00 0.00 0.00 0.00 0.00 0.00 0.00 0.00 0.00 0.00 0.00 0.00 0.00 0.00 0.00 0.00 0.00 0.00 0.00 0.00 0.00 0.00 0.00 0.00 0.00 0.00 0.00 0.00 0.00 0.00 0.00 0.00 0.00 0.00 0.00 0.00 0.00 0.00 0.00 0.00 0.00 0.00
0.00 0.00 0.00 0.00 0.00 0.00 0.00 0.00 0.00 0.00 0.00 0.00 0.00 0.00 0.00 0.00 0.00 0.00 0.00 0.00 0.00 0.00 0.00 0.00 0.00 0.00 0.00 0.00 0.00 0.00 0.00 0.00 0.00 0.00 0.00 0.00 0.00 0.00 0.00 0.00 0.00 0.00 0.00
0.00 0.00 0.00 0.00 0.00 0.00 0.00 0.00 0.00 0.00 0.00 0.00 0.00 0.00 0.00 0.00 0.00 0.00 0.00 0.00 0.00 0.00 0.00 0.00 0.00 0.00 0.00 0.00 0.00 0.00 0.00 0.00 0.00 0.00 0.00 0.00 0.00 0.00 0.00 0.00 0.00 0.00 0.00
0.00 0.00 0.00 0.00 0.00 0.00 0.00 0.00 0.00 0.00 0.00 0.00 0.00 0.00 0.00 0.00 0.00 0.00 0.00 0.00 0.00 0.00 0.00 0.00 0.00 0.00 0.00 0.01 0.01 0.01 0.01 0.01 0.00 0.00 0.01 0.00 0.00 0.00 0.00 0.00 0.00 0.00 0.00
0.00 0.00 0.00 0.00 0.00 0.00 0.00 0.00 0.00 0.00 0.00 0.00 0.00 0.00 0.00 0.00 0.00 0.00 0.00 0.00 0.00 0.00 0.00 0.00 0.00 0.00 0.00 0.00 0.00 0.00 0.00 0.01 0.00 0.01 0.01 0.00 0.00 0.00 0.00 0.00 0.00 0.00 0.00
0.00 0.00 0.00 0.00 0.00 0.00 0.00 0.00 0.00 0.00 0.00 0.00 0.00 0.00 0.00 0.00 0.00 0.00 0.00 0.00 0.00 0.00 0.00 0.00 0.01 0.00 0.00 0.00 0.00 0.00 0.01 0.01 0.00 0.01 0.02 0.01 0.00 0.00 0.00 0.00 0.00 0.00 0.00
0.00 0.00 0.00 0.00 0.00 0.00 0.00 0.00 0.00 0.00 0.00 0.00 0.00 0.00 0.00 0.00 0.00 0.00 0.00 0.00 0.00 0.00 0.00 0.00 0.01 0.01 0.02 0.02 0.04 0.06 0.01 0.01 0.00 0.00 0.01 0.01 0.00 0.00 0.00 0.00 0.00 0.00 0.00
0.00 0.00 0.00 0.00 0.00 0.00 0.00 0.00 0.00 0.00 0.00 0.00 0.00 0.00 0.00 0.00 0.00 0.00 0.01 0.01 0.00 0.00 0.00 0.00 0.00 0.00 0.00 0.00 0.01 0.02 0.01 0.01 0.01 0.00 0.00 0.00 0.00 0.00 0.00 0.00 0.00 0.00 0.00
MSLP
1019.71 1019.79 1019.86 1019.89 1019.96 1019.92 1020.01 1020.02 1019.95 1019.84 1019.73 1019.52 1019.37 1019.28 1019.29 1019.26 1019.27 1019.38 1019.62 1019.63 1019.64 1019.68 1019.56 1019.43 1019.33 1019.28 1019.19 1019.03 1018.93 1018.81 1018.80 1018.83 1018.76 1018.69 1018.63 1018.49 1018.32 1018.12 1017.82 1017.36 1016.94 1016.59 1016.22
1019.73 1019.84 1019.99 1020.03 1020.12 1020.09 1020.14 1020.07 1020.03 1020.01 1019.92 1019.71 1019.59 1019.42 1019.43 1019.47 1019.41 1019.39 1019.79 1019.76 1019.77 1019.79 1019.77 1019.73 1019.68 1019.63 1019.52 1019.28 1019.12 1019.05 1019.02 1018.94 1018.87 1018.73 1018.62 1018.46 1018.36 1018.19 1018.00 1017.64 1017.29 1016.94 1016.51
1019.67 1019.86 1020.04 1020.25 1020.26 1020.14 1020.12 1020.07 1020.05 1020.05 1020.06 1019.82 1019.92 1019.64 1019.58 1019.54 1019.57 1019.47 1019.49 1019.86 1019.90 1019.97 1019.92 1020.00 1020.01 1019.93 1019.80 1019.59 1019.33 1019.14 1018.98 1018.85 1018.75 1018.70 1018.52 1018.33 1018.21 1018.14 1017.92 1017.71 1017.47 1017.23 1016.89
1019.49 1019.76 1020.02 1020.33 1020.29 1020.25 1020.23 1020.28 1020.33 1020.39 1020.35 1020.21 1020.11 1019.99 1019.88 1019.78 1019.68 1019.62 1019.62 1019.72 1020.02 1020.18 1020.12 1020.11 1020.13 1020.12 1020.06 1019.86 1019.56 1019.27 1019.10 1019.08 1018.89 1018.60 1018.37 1018.19 1018.07 1017.85 1017.73 1017.56 1017.37 1017.17 1017.05
1019.43 1019.73 1019.99 1020.21 1020.28 1020.37 1020.40 1020.43 1020.52 1020.55 1020.61 1020.57 1020.34 1020.11 1020.11 1020.15 1019.94 1019.71 1019.82 1019.94 1020.04 1020.17 1020.30 1020.30 1020.24 1020.21 1020.13 1019.96 1019.75 1019.49 1019.24 1019.10 1018.83 1018.59 1018.35 1017.97 1017.78 1017.73 1017.51 1017.33 1017.13 1016.86 1016.79
1019.40 1019.66 1019.88 1020.13 1020.29 1020.48 1020.72 1020.73 1020.78 1020.72 1020.75 1020.80 1020.50 1020.27 1020.00 1020.06 1020.01 1020.09 1020.06 1020.06 1020.19 1020.37 1020.45 1020.47 1020.46 1020.38 1020.17 1019.89 1019.74 1019.54 1019.55 1019.12 1018.76 1018.41 1018.22 1018.02 1017.70 1017.44 1017.32 1017.08 1016.91 1016.68 1016.38
1019.32 1019.61 1019.87 1020.06 1020.29 1020.66 1020.83 1020.95 1020.99 1020.99 1021.07 1020.90 1020.76 1020.46 1020.33 1020.12 1020.20 1020.32 1020.31 1020.48 1020.53 1020.56 1020.52 1020.44 1020.51 1020.41 1020.31 1020.02 1019.93 1019.79 1019.65 1019.30 1018.84 1018.36 1017.98 1017.81 1017.55 1017.14 1016.92 1016.74 1016.55 1016.40 1016.20
1019.26 1019.56 1019.84 1020.16 1020.41 1020.73 1020.88 1021.12 1021.27 1021.39 1021.34 1021.22 1021.52 1021.42 1021.13 1021.02 1020.77 1020.61 1020.51 1020.66 1020.65 1020.54 1020.51 1020.42 1020.39 1020.31 1020.30 1020.23 1020.07 1019.77 1019.86 1019.67 1019.24 1018.68 1018.26 1017.78 1017.39 1016.98 1016.68 1016.37 1016.11 1015.93 1015.73
1019.21 1019.59 1019.83 1020.24 1020.55 1020.74 1021.04 1021.23 1021.39 1021.55 1021.75 1021.67 1021.51 1021.82 1021.87 1022.14 1021.75 1021.03 1020.86 1020.83 1020.82 1020.68 1020.46 1020.30 1020.19 1020.13 1020.06 1020.05 1020.06 1020.08 1019.99 1019.83 1019.37 1018.84 1018.41 1017.99 1017.57 1017.08 1016.61 1016.17 1015.89 1015.60 1015.45
1019.35 1019.64 1019.88 1020.25 1020.51 1020.75 1021.08 1021.23 1021.38 1021.59 1021.73 1022.00 1021.95 1021.78 1021.99 1022.33 1022.53 1022.44 1021.44 1021.22 1021.01 1020.94 1020.77 1020.48 1020.16 1019.98 1019.87 1019.83 1019.79 1019.92 1019.84 1019.77 1019.35 1018.86 1018.39 1017.97 1017.54 1017.01 1016.49 1015.97 1015.63 1015.36 1015.41
1019.56 1019.69 1019.95 1020.28 1020.57 1020.84 1021.06 1021.32 1021.48 1021.72 1021.76 1022.06 1022.25 1022.34 1022.35 1022.36 1022.55 1022.95 1022.76 1021.98 1021.48 1021.03 1020.85 1020.53 1020.20 1019.96 1019.75 1019.68 1019.70 1019.75 1019.72 1019.70 1019.35 1018.88 1018.41 1017.96 1017.47 1016.91 1016.42 1015.94 1015.51 1015.31 1015.42
1019.84 1019.81 1020.01 1020.37 1020.58 1020.85 1021.20 1021.44 1021.57 1021.85 1021.96 1022.11 1022.30 1022.45 1022.70 1022.88 1022.96 1023.07 1023.01 1022.48 1022.18 1021.44 1020.93 1020.50 1020.09 1019.74 1019.56 1019.49 1019.39 1019.50 1019.65 1019.52 1019.25 1018.79 1018.38 1017.93 1017.40 1016.98 1016.71 1016.39 1015.97 1015.62 1015.25
1019.92 1020.04 1020.23 1020.55 1020.74 1021.05 1021.33 1021.47 1021.77 1021.98 1022.11 1022.37 1022.47 1022.61 1022.58 1022.76 1022.79 1022.85 1022.98 1022.67 1022.31 1021.60 1021.06 1020.43 1019.89 1019.55 1019.23 1019.32 1019.30 1019.27 1019.26 1019.17 1018.96 1018.56 1018.25 1017.97 1017.55 1017.23 1017.12 1016.76 1016.31 1015.84 1015.61
1019.70 1019.97 1020.34 1020.59 1020.90 1021.22 1021.48 1021.64 1021.88 1022.04 1022.23 1022.40 1022.49 1022.56 1022.67 1022.69 1022.64 1022.70 1022.85 1022.93 1022.39 1021.98 1021.25 1020.69 1019.97 1019.45 1019.27 1019.08 1018.98 1018.85 1018.95 1018.90 1018.80 1018.40 1018.04 1017.98 1017.67 1017.42 1017.13 1016.80 1016.34 1015.89 1015.77
1019.76 1020.14 1020.48 1020.84 1021.14 1021.36 1021.57 1021.79 1021.98 1022.11 1022.27 1022.34 1022.44 1022.50 1022.58 1022.53 1022.47 1022.36 1022.35 1022.53 1022.73 1022.24 1021.18 1020.47 1020.30 1019.40 1019.31 1019.12 1018.76 1018.62 1018.61 1018.44 1018.28 1018.15 1017.90 1017.60 1017.46 1017.31 1017.03 1016.65 1016.21 1015.88 1015.78
1019.88 1020.35 1020.69 1021.03 1021.32 1021.51 1021.69 1021.87 1022.15 1022.18 1022.27 1022.31 1022.34 1022.40 1022.40 1022.30 1022.20 1022.12 1022.06 1022.04 1022.19 1022.25 1021.40 1020.40 1020.02 1019.64 1019.19 1018.72 1018.40 1018.17 1018.08 1017.95 1017.79 1017.52 1017.40 1017.15 1016.98 1016.91 1016.74 1016.40 1016.04 1015.85 1015.66
1020.10 1020.44 1020.85 1021.14 1021.41 1021.62 1021.71 1022.00 1022.13 1022.15 1022.18 1022.29 1022.28 1022.29 1022.22 1022.05 1021.95 1021.73 1021.60 1021.53 1021.58 1021.64 1021.24 1019.32 1019.60 1019.24 1018.97 1018.67 1018.25 1017.87 1017.64 1017.52 1017.39 1017.03 1016.83 1016.59 1016.45 1016.36 1016.33 1016.18 1015.86 1015.63 1015.41
1020.11 1020.54 1020.87 1021.11 1021.36 1021.66 1021.85 1021.95 1022.04 1022.07 1022.22 1022.29 1022.20 1022.14 1022.00 1021.74 1021.55 1021.40 1021.30 1021.17 1020.99 1020.75 1020.81 1019.91 1018.96 1018.95 1018.71 1018.40 1017.94 1017.77 1017.30 1017.01 1016.89 1016.56 1016.30 1016.04 1015.87 1015.84 1015.84 1015.74 1015.57 1015.36 1015.18
1020.38 1020.64 1020.92 1021.17 1021.46 1021.69 1021.82 1021.95 1022.00 1022.07 1022.15 1022.14 1022.04 1021.92 1021.67 1021.42 1021.30 1021.03 1020.86 1020.81 1020.63 1020.42 1020.35 1020.02 1018.82 1018.54 1018.12 1017.87 1017.52 1017.19 1016.90 1016.71 1016.39 1015.97 1015.66 1015.36 1015.20 1015.14 1015.13 1015.11 1015.04 1014.95 1014.86
1020.55 1020.95 1021.14 1021.38 1021.59 1021.72 1021.84 1021.94 1022.08 1022.16 1022.18 1022.10 1021.92 1021.66 1021.41 1021.18 1020.92 1020.80 1020.68 1020.62 1020.26 1020.20 1020.01 1019.75 1019.16 1018.41 1018.07 1017.50 1017.29 1016.99 1016.55 1016.16 1015.92 1015.45 1015.21 1014.99 1014.90 1014.84 1014.77 1014.67 1014.54 1014.56 1014.54
1020.92 1021.19 1021.40 1021.58 1021.57 1021.69 1021.81 1021.99 1022.15 1022.31 1022.33 1022.14 1021.89 1021.58 1021.22 1020.95 1020.72 1020.56 1020.26 1020.17 1020.11 1019.82 1019.52 1019.17 1018.88 1018.45 1017.77 1017.35 1017.16 1016.53 1016.25 1015.96 1015.62 1015.38 1014.96 1014.90 1014.90 1014.82 1014.68 1014.60 1014.49 1014.39 1014.08
1021.28 1021.50 1021.67 1021.68 1021.72 1021.77 1021.90 1022.06 1022.19 1022.41 1022.43 1022.24 1021.90 1021.44 1021.07 1020.78 1020.48 1020.27 1020.08 1019.87 1019.69 1019.45 1019.17 1018.86 1018.35 1017.98 1017.17 1016.96 1016.63 1016.35 1016.02 1015.82 1015.48 1015.11 1014.86 1014.75 1014.62 1014.58 1014.52 1014.29 1013.96 1013.71 1013.48
1021.64 1021.80 1021.80 1021.86 1021.95 1021.98 1021.91 1022.05 1022.19 1022.38 1022.37 1022.08 1021.72 1021.27 1020.88 1020.50 1020.14 1019.82 1019.60 1019.41 1019.26 1019.10 1018.67 1018.17 1017.61 1017.21 1016.64 1016.21 1016.00 1015.67 1015.53 1015.39 1014.98 1014.45 1014.53 1014.45 1014.28 1014.36 1014.06 1013.76 1013.44 1013.14 1012.97
1021.91 1021.92 1022.10 1022.17 1022.20 1022.18 1022.09 1022.17 1022.27 1022.31 1022.18 1021.89 1021.56 1021.15 1020.74 1020.29 1019.88 1019.42 1018.94 1018.95 1018.79 1018.44 1018.01 1017.52 1017.02 1016.42 1015.95 1015.40 1015.18 1014.98 1014.80 1014.67 1014.33 1014.02 1013.98 1014.20 1013.77 1013.84 1013.50 1013.34 1012.99 1012.75 1012.46
1022.22 1022.39 1022.36 1022.42 1022.52 1022.42 1022.22 1022.03 1022.11 1022.24 1022.15 1021.88 1021.49 1021.14 1020.78 1020.35 1019.75 1019.26 1018.70 1018.41 1018.07 1017.73 1017.22 1016.68 1016.15 1015.57 1015.28 1014.76 1014.38 1014.13 1014.14 1014.16 1013.71 1013.48 1013.34 1013.54 1013.55 1013.60 1013.31 1012.93 1012.59 1012.14 1011.91
1022.43 1022.41 1022.50 1022.52 1022.46 1022.24 1021.93 1021.79 1021.92 1022.01 1022.01 1021.73 1021.30 1020.95 1020.62 1020.06 1019.36 1018.91 1018.50 1018.14 1017.60 1017.27 1016.75 1016.20 1015.80 1015.40 1015.03 1014.94 1014.46 1014.22 1013.99 1013.77 1013.11 1012.84 1012.94 1013.33 1013.52 1013.81 1013.20 1012.42 1012.17 1011.93 1011.84
Thickness
5676 5674 5673 5671 5670 5668 5667 5666 5665 5664 5663 5663 5662 5661 5658 5656 5653 5651 5646 5642 5640 5637 5636 5634 5632 5630 5628 5626 5624 5622 5619 5616 5614 5611 5609 5609 5608 5608 5610 5613 5616 5618 5621
5671 5669 5667 5665 5664 5662 5660 5660 5658 5657 5656 5656 5655 5654 5651 5648 5645 5643 5639 5636 5632 5630 5627 5625 5623 5621 5619 5618 5616 5614 5611 5609 5607 5605 5603 5602 5602 5600 5600 5602 5606 5608 5612
5665 5663 5661 5658 5657 5656 5655 5654 5653 5651 5650 5649 5647 5646 5644 5641 5638 5635 5633 5629 5625 5621 5619 5615 5612 5610 5609 5608 5607 5605 5603 5602 5600 5597 5595 5594 5593 5592 5593 5593 5594 5597 5600
5661 5658 5655 5652 5650 5649 5648 5647 5646 5643 5641 5640 5638 5637 5635 5633 5629 5627 5624 5622 5618 5614 5610 5607 5604 5601 5598 5596 5595 5594 5592 5589 5588 5588 5587 5586 5584 5584 5584 5584 5584 5586 5588
5656 5653 5650 5647 5644 5643 5641 5640 5638 5636 5633 5630 5630 5630 5627 5623 5620 5619 5616 5612 5608 5604 5601 5597 5593 5590 5586 5583 5581 5580 5579 5578 5578 5577 5575 5575 5574 5573 5573 5575 5576 5577 5577
5651 5648 5645 5642 5639 5636 5632 5631 5629 5628 5624 5621 5622 5621 5619 5616 5612 5608 5605 5601 5597 5592 5588 5585 5581 5578 5574 5571 5569 5567 5565 5565 5564 5564 5563 5561 5561 5562 5562 5563 5564 5567 5569
5646 5642 5639 5636 5632 5628 5625 5622 5619 5617 5614 5613 5611 5610 5608 5607 5603 5598 5595 5590 5584 5580 5576 5572 5567 5564 5561 5558 5555 5551 5548 5548 5549 5549 5549 5547 5546 5547 5548 5549 5550 5551 5554
5640 5636 5632 5628 5624 5621 5617 5613 5609 5606 5604 5601 5595 5592 5591 5591 5589 5587 5583 5579 5573 5568 5564 5559 5555 5550 5547 5543 5540 5536 5531 5528 5527 5528 5529 5530 5531 5531 5531 5532 5534 5537 5539
5634 5629 5625 5620 5616 5613 5608 5603 5599 5596 5591 5588 5586 5580 5573 5567 5566 5572 5569 5564 5559 5555 5551 5546 5541 5537 5532 5527 5522 5517 5511 5507 5505 5505 5505 5505 5506 5508 5509 5510 5513 5515 5521
5625 5621 5617 5613 5608 5604 5599 5595 5591 5587 5582 5576 5573 5572 5565 5558 5548 5544 5550 5547 5544 5538 5534 5531 5526 5520 5515 5509 5505 5498 5492 5486 5483 5481 5480 5479 5479 5481 5484 5488 5490 5494 5496
5616 5614 5610 5604 5600 5595 5590 5586 5581 5575 5572 5566 5560 5555 5550 5545 5539 5530 5525 5525 5524 5520 5516 5512 5508 5502 5495 5490 5483 5477 5469 5462 5458 5455 5453 5452 5452 5456 5460 5465 5472 5477 5478
5606 5605 5601 5595 5591 5586 5581 5575 5570 5565 5560 5554 5548 5543 5535 5527 5521 5514 5509 5507 5503 5504 5499 5492 5488 5483 5473 5468 5461 5453 5444 5439 5435 5433 5431 5431 5433 5436 5438 5442 5448 5454 5462
5597 5595 5591 5586 5581 5576 5570 5565 5559 5553 5548 5540 5534 5527 5521 5514 5507 5500 5492 5488 5485 5487 5481 5474 5469 5464 5457 5443 5436 5431 5425 5421 5419 5418 5417 5416 5417 5418 5419 5423 5428 5436 5442
5591 5587 5581 5576 5570 5564 5558 5553 5547 5541 5534 5526 5520 5513 5505 5498 5491 5483 5474 5465 5467 5463 5462 5452 5444 5438 5434 5427 5418 5413 5408 5404 5403 5403 5403 5402 5403 5403 5404 5407 5413 5419 5424
5583 5577 5571 5565 5559 5553 5548 5542 5535 5527 5520 5514 5507 5499 5491 5483 5476 5467 5457 5446 5433 5433 5445 5435 5421 5417 5409 5405 5403 5397 5393 5391 5388 5387 5389 5390 5390 5391 5391 5394 5399 5404 5408
5573 5567 5561 5554 5548 5542 5536 5529 5521 5514 5507 5500 5493 5484 5475 5468 5461 5451 5442 5430 5415 5402 5408 5411 5406 5395 5390 5384 5383 5381 5380 5376 5374 5374 5375 5377 5378 5380 5381 5384 5387 5389 5393
5563 5557 5550 5544 5537 5531 5524 5516 5508 5502 5494 5485 5476 5469 5461 5452 5444 5434 5423 5411 5400 5383 5378 5406 5383 5380 5372 5365 5365 5362 5362 5361 5360 5360 5359 5363 5365 5368 5370 5371 5375 5379 5381
5553 5546 5540 5534 5526 5518 5511 5504 5496 5489 5479 5470 5461 5452 5444 5437 5427 5416 5405 5395 5384 5373 5357 5361 5374 5359 5352 5346 5347 5343 5342 5341 5342 5344 5344 5347 5350 5353 5356 5359 5362 5366 5370
5541 5535 5529 5522 5514 5506 5499 5491 5484 5474 5465 5455 5447 5438 5428 5419 5409 5399 5387 5376 5365 5356 5342 5332 5344 5338 5335 5329 5326 5324 5322 5322 5319 5324 5326 5330 5333 5337 5342 5346 5349 5353 5357
5531 5523 5516 5509 5501 5493 5485 5477 5468 5458 5449 5441 5431 5421 5411 5401 5391 5381 5370 5357 5349 5338 5328 5318 5315 5315 5310 5310 5299 5298 5298 5299 5298 5300 5305 5308 5311 5316 5322 5327 5333 5338 5343
5518 5510 5503 5495 5488 5480 5471 5460 5451 5441 5432 5423 5413 5404 5394 5384 5372 5360 5350 5339 5327 5318 5310 5303 5297 5291 5291 5287 5281 5282 5278 5277 5278 5278 5281 5285 5286 5292 5300 5305 5311 5318 5326
5504 5497 5489 5482 5473 5465 5455 5446 5437 5425 5414 5405 5396 5387 5376 5366 5354 5343 5333 5322 5311 5300 5294 5283 5281 5275 5278 5269 5265 5261 5256 5251 5253 5255 5253 5260 5264 5271 5276 5283 5293 5302 5311
5489 5481 5474 5466 5456 5447 5441 5431 5420 5408 5398 5387 5377 5368 5358 5348 5337 5328 5319 5310 5299 5286 5275 5272 5270 5266 5263 5258 5251 5247 5239 5231 5232 5233 5230 5234 5242 5248 5257 5265 5274 5284 5295
5474 5467 5458 5450 5441 5432 5424 5414 5404 5392 5381 5371 5359 5347 5337 5330 5320 5312 5307 5297 5286 5278 5271 5265 5259 5256 5251 5248 5241 5235 5230 5225 5225 5225 5223 5219 5230 5232 5240 5248 5259 5268 5278
5458 5450 5444 5435 5425 5415 5408 5399 5388 5375 5363 5353 5342 5329 5319 5311 5303 5297 5289 5281 5276 5270 5264 5257 5252 5247 5243 5239 5236 5232 5227 5222 5225 5224 5223 5219 5221 5221 5228 5237 5245 5256 5265
5445 5439 5429 5420 5412 5402 5393 5383 5371 5357 5346 5338 5327 5314 5302 5294 5288 5279 5271 5266 5263 5259 5255 5251 5246 5240 5234 5229 5227 5224 5222 5220 5223 5220 5221 5213 5214 5212 5218 5230 5236 5244 5251